Location: Newark
(51.5714°N, 0.6956°E)
Time: 06:51:11
(UTC+00:00)

OTV 5 (USA 277) - Visible Passes

Search period start: 22 October 2019 00:00
Search period end: 01 November 2019 00:00
Orbit: 310 x 324 km, 54.5° (Epoch: 17 October)

Date Brightness Start Highest point End Pass type
(mag) Time Alt. Az. Time Alt. Az. Time Alt. Az.
29 Oct ? 18:52:54 10° SSW 18:53:10 12° SSW 18:53:10 12° SSW visible
30 Oct ? 17:35:01 10° SSE 17:36:02 12° SE 17:36:39 11° ESE visible
30 Oct ? 19:07:09 10° SW 19:07:33 13° SW 19:07:33 13° SW visible
31 Oct ? 17:48:04 10° SSW 17:50:19 23° SE 17:50:56 21° ESE visible
31 Oct ? 19:21:41 10° WSW 19:21:50 11° WSW 19:21:50 11° WSW visible
